Weather History for KDMN - November, 2012

Change the Weather History Date:

Tuesday, November 13, 2012

  Actual Average Record
Temperature  
Mean Temperature 45 °F 51 °F  
Max Temperature 63 °F 67 °F 80 °F (1984)
Min Temperature 27 °F 35 °F 23 °F (1992)
Degree Days  
Heating Degree Days 20    
Moisture  
Dew Point 0 °F    
Average Humidity 16    
Maximum Humidity 23    
Minimum Humidity 9    
Precipitation  
Precipitation 0.00 in 0.02 in 0.53 in (2003)
Month to date precipitation T 0.25  
Year to date precipitation 3.75 10.20  
Sea Level Pressure  
Sea Level Pressure 30.20 in    
Wind  
Wind Speed 6 mph (East)    
Max Wind Speed 16 mph    
Max Gust Speed 20 mph    
Visibility 10 miles    
Events      
T = Trace of Precipitation, MM = Missing Value Source: NWS Daily Summary

Daily Weather History Graph

Daily Weather History Graph

Search for Another Location

Airport or City:

Trip Planner

Search our weather history database for the weather conditions in past years. The results will help you decide how hot, cold, wet, or windy it might be!

Date:

Astronomy

Nov. 13, 2012 Rise Set
Actual Time 6:38 AM MST 5:11 PM MST
Civil Twilight 6:12 AM MST 5:37 PM MST
Nautical Twilight 5:43 AM MST 6:06 PM MST
Astronomical Twilight 5:14 AM MST 6:35 PM MST
Moon 6:19 AM MST (11/13) 5:08 PM MST (11/13)
Length of Visible Light 11h 24m
Length of Day
10h 32m
Waning Crescent, 0% of the Moon is Illuminated
Nov 13
Waning Crescent
Nov 13
New
Nov 20
First Quarter
Nov 28
Full
Dec 6
Last Quarter

Hourly Weather History & Observations

Time (MST) Temp. Windchill Dew Point Humidity Pressure Visibility Wind Dir Wind Speed Gust Speed Precip Events Conditions
12:53 AM 36.0 °F 31.1 °F -5.1 °F 17% 30.22 in 10.0 mi SE 5.8 mph - N/A   Clear
1:53 AM 34.0 °F 29.8 °F -5.1 °F 19% 30.21 in 10.0 mi ESE 4.6 mph - N/A   Clear
2:53 AM 30.9 °F 24.3 °F -5.1 °F 21% 30.21 in 10.0 mi ESE 6.9 mph - N/A   Clear
3:53 AM 30.9 °F 24.3 °F -5.1 °F 21% 30.20 in 10.0 mi ESE 6.9 mph - N/A   Clear
4:53 AM 30.0 °F 23.2 °F -5.1 °F 22% 30.22 in 10.0 mi ESE 6.9 mph - N/A   Clear
5:53 AM 28.0 °F 21.7 °F -5.1 °F 24% 30.25 in 10.0 mi East 5.8 mph - N/A   Clear
6:53 AM 28.0 °F - -5.1 °F 24% 30.27 in 10.0 mi Calm Calm - N/A   Clear
7:53 AM 37.9 °F 34.4 °F -2.9 °F 18% 30.25 in 10.0 mi East 4.6 mph - N/A   Clear
8:53 AM 48.9 °F - -0.9 °F 13% 30.25 in 10.0 mi ENE 10.4 mph - N/A   Clear
9:53 AM 52.0 °F - -0.9 °F 11% 30.24 in 10.0 mi ENE 11.5 mph - N/A   Clear
10:53 AM 55.0 °F - 1.9 °F 12% 30.19 in 10.0 mi ENE 10.4 mph - N/A   Clear
11:53 AM 57.0 °F - 3.0 °F 11% 30.18 in 10.0 mi ENE 8.1 mph - N/A   Clear
12:53 PM 59.0 °F - 5.0 °F 12% 30.14 in 10.0 mi ESE 6.9 mph - N/A   Clear
1:53 PM 61.0 °F - 6.1 °F 11% 30.12 in 10.0 mi ESE 6.9 mph - N/A   Clear
2:53 PM 61.0 °F - 6.1 °F 11% 30.12 in 10.0 mi SE 3.5 mph - N/A   Clear
3:53 PM 62.1 °F - 3.9 °F 10% 30.11 in 10.0 mi East 10.4 mph - N/A   Clear
4:53 PM 59.0 °F - 5.0 °F 12% 30.13 in 10.0 mi ENE 5.8 mph - N/A   Clear
5:53 PM 51.1 °F - 5.0 °F 15% 30.18 in 10.0 mi East 4.6 mph - N/A   Clear
6:53 PM 46.9 °F - 6.1 °F 19% 30.21 in 10.0 mi NE 4.6 mph - N/A   Clear
7:53 PM 41.0 °F 37.1 °F 1.9 °F 20% 30.21 in 10.0 mi NNE 5.8 mph - N/A   Clear
8:53 PM 39.0 °F - 1.0 °F 20% 30.21 in 10.0 mi Calm Calm - N/A   Clear
9:53 PM 37.0 °F - 5.0 °F 26% 30.22 in 10.0 mi Calm Calm - N/A   Clear
10:53 PM 34.0 °F 31.0 °F 1.0 °F 25% 30.23 in 10.0 mi NW 3.5 mph - N/A   Clear
11:53 PM 32.0 °F 26.4 °F -2.0 °F 23% 30.21 in 10.0 mi NW 5.8 mph - N/A   Clear